When you browse on this site, cookies collect data to enhance your experience and personalize the content and advertising you see.
Visit our Privacy Policy to learn more. By continuing to use the site, you agree to this use of cookies and data.
  • In Portugal
  • List of Countries
  • For 7 days
  • Water Temperature
  • Weather Map
  • Weather Widgets
  • user-avatar
    Login

    Hourly Weather Mazgaje

    Today, 22 January, Wednesday

    Time Temperature Precipitation Wind Pressure Humidity
    00:00 -2°C° 0 mm 2 mps 731 mmHg 62%
    01:00 -2°C° 0 mm 2 mps 731 mmHg 62%
    02:00 -2°C° 0 mm 2 mps 730 mmHg 63%
    03:00 -3°C° 0 mm 2 mps 729 mmHg 63%
    04:00 -3°C° 0 mm 2 mps 729 mmHg 64%
    05:00 -3°C° 0 mm 2 mps 728 mmHg 63%
    06:00 -3°C° 0 mm 2 mps 728 mmHg 63%
    07:00 -4°C° 0 mm 3 mps 727 mmHg 62%
    08:00 -2°C° 0 mm 3 mps 727 mmHg 59%
    09:00 -1°C° 0 mm 3 mps 727 mmHg 56%
    10:00 +2°C° 0 mm 2 mps 727 mmHg 53%
    11:00 +1°C° 0 mm 3 mps 726 mmHg 55%
    12:00 +1°C° 0 mm 3 mps 726 mmHg 57%
    13:00 0°C° 0 mm 4 mps 726 mmHg 58%
    14:00 0°C° 0 mm 4 mps 725 mmHg 65%
    15:00 -1°C° 0 mm 4 mps 725 mmHg 72%
    16:00 -1°C° 0 mm 4 mps 725 mmHg 78%
    17:00 -2°C° 0.1 mm 4 mps 725 mmHg 84%
    18:00 -2°C° 0.1 mm 4 mps 725 mmHg 90%
    19:00 -2°C° 0.1 mm 4 mps 726 mmHg 96%
    20:00 -2°C° 0.2 mm 4 mps 726 mmHg 95%
    21:00 -1°C° 0.2 mm 3 mps 726 mmHg 95%
    22:00 -1°C° 0.2 mm 3 mps 727 mmHg 95%
    23:00 -1°C° 0.1 mm 3 mps 727 mmHg 94%

    Tomorrow, 23 January, Thursday

    Time Temperature Precipitation Wind Pressure Humidity
    00:00 -1°C° 0.1 mm 3 mps 728 mmHg 94%
    01:00 -1°C° 0.1 mm 3 mps 729 mmHg 94%
    02:00 -1°C° 0 mm 3 mps 729 mmHg 94%
    03:00 -2°C° 0 mm 2 mps 729 mmHg 93%
    04:00 -2°C° 0 mm 2 mps 729 mmHg 93%
    05:00 -2°C° 0 mm 2 mps 729 mmHg 92%
    06:00 -2°C° 0 mm 2 mps 730 mmHg 91%
    07:00 -2°C° 0 mm 2 mps 730 mmHg 90%
    08:00 -2°C° 0 mm 2 mps 730 mmHg 86%
    09:00 -1°C° 0 mm 2 mps 730 mmHg 82%
    10:00 -1°C° 0 mm 2 mps 731 mmHg 79%
    11:00 +1°C° 0 mm 2 mps 731 mmHg 76%
    12:00 +1°C° 0 mm 2 mps 731 mmHg 73%
    13:00 +2°C° 0 mm 2 mps 730 mmHg 71%
    14:00 +2°C° 0 mm 1 mps 730 mmHg 76%
    15:00 +1°C° 0 mm 1 mps 729 mmHg 80%
    16:00 -1°C° 0 mm 0 mps 729 mmHg 85%
    17:00 0°C° 0 mm 1 mps 729 mmHg 85%
    18:00 -1°C° 0 mm 1 mps 729 mmHg 86%
    19:00 -1°C° 0 mm 1 mps 728 mmHg 86%
    20:00 -1°C° 0 mm 1 mps 728 mmHg 85%
    21:00 -2°C° 0 mm 1 mps 728 mmHg 84%
    22:00 -2°C° 0 mm 1 mps 728 mmHg 82%
    23:00 -2°C° 0 mm 1 mps 728 mmHg 80%

    Day after tomorrow, 24 January, Friday

    Time Temperature Precipitation Wind Pressure Humidity
    00:00 -2°C° 0 mm 1 mps 728 mmHg 78%
    01:00 -2°C° 0 mm 1 mps 727 mmHg 76%
    02:00 -2°C° 0 mm 1 mps 727 mmHg 74%
    03:00 -2°C° 0 mm 1 mps 726 mmHg 71%
    04:00 -2°C° 0 mm 1 mps 726 mmHg 69%
    05:00 -2°C° 0 mm 1 mps 726 mmHg 68%
    06:00 -2°C° 0 mm 1 mps 726 mmHg 67%
    07:00 -2°C° 0 mm 1 mps 726 mmHg 66%
    08:00 -1°C° 0 mm 1 mps 726 mmHg 63%
    09:00 0°C° 0 mm 1 mps 726 mmHg 60%
    10:00 +1°C° 0 mm 1 mps 726 mmHg 57%
    11:00 +2°C° 0 mm 1 mps 725 mmHg 57%
    12:00 +3°C° 0 mm 1 mps 725 mmHg 56%
    13:00 +4°C° 0 mm 1 mps 725 mmHg 55%
    14:00 +3°C° 0 mm 1 mps 724 mmHg 61%
    15:00 +2°C° 0 mm 1 mps 723 mmHg 67%
    16:00 0°C° 0 mm 0 mps 723 mmHg 72%
    17:00 0°C° 0 mm 1 mps 723 mmHg 73%
    18:00 0°C° 0 mm 1 mps 723 mmHg 73%
    19:00 -1°C° 0 mm 1 mps 723 mmHg 74%
    20:00 -1°C° 0 mm 1 mps 723 mmHg 74%
    21:00 -2°C° 0 mm 1 mps 723 mmHg 74%
    22:00 -2°C° 0 mm 1 mps 722 mmHg 74%
    23:00 -2°C° 0 mm 1 mps 722 mmHg 73%

    25 January, Saturday

    Time Temperature Precipitation Wind Pressure Humidity
    00:00 -2°C° 0 mm 1 mps 722 mmHg 73%
    01:00 -2°C° 0 mm 1 mps 722 mmHg 72%
    02:00 -2°C° 0 mm 1 mps 722 mmHg 72%
    03:00 -2°C° 0 mm 1 mps 722 mmHg 72%
    04:00 -2°C° 0 mm 1 mps 721 mmHg 72%
    05:00 -2°C° 0 mm 1 mps 721 mmHg 72%
    06:00 -2°C° 0 mm 1 mps 721 mmHg 73%
    07:00 -2°C° 0 mm 1 mps 721 mmHg 73%
    08:00 -1°C° 0 mm 1 mps 722 mmHg 69%
    09:00 0°C° 0 mm 1 mps 722 mmHg 65%
    10:00 0°C° 0 mm 0 mps 722 mmHg 62%
    11:00 +1°C° 0 mm 0 mps 722 mmHg 60%
    12:00 +2°C° 0 mm 0 mps 722 mmHg 59%
    13:00 +3°C° 0 mm 0 mps 722 mmHg 57%
    14:00 +2°C° 0 mm 0 mps 722 mmHg 63%
    15:00 +1°C° 0 mm 0 mps 721 mmHg 69%
    16:00 -1°C° 0 mm 0 mps 721 mmHg 75%
    17:00 -1°C° 0 mm 0 mps 721 mmHg 77%
    18:00 -1°C° 0 mm 0 mps 721 mmHg 79%
    19:00 -2°C° 0 mm 0 mps 721 mmHg 81%
    20:00 -2°C° 0 mm 0 mps 721 mmHg 81%
    21:00 -2°C° 0 mm 0 mps 721 mmHg 81%
    22:00 -1°C° 0 mm 1 mps 721 mmHg 81%
    23:00 -1°C° 0 mm 1 mps 721 mmHg 81%

    26 January, Sunday

    Time Temperature Precipitation Wind Pressure Humidity
    00:00 -1°C° 0 mm 1 mps 721 mmHg 81%
    01:00 -1°C° 0 mm 1 mps 721 mmHg 81%
    02:00 -1°C° 0 mm 1 mps 721 mmHg 81%
    03:00 -1°C° 0 mm 1 mps 721 mmHg 81%
    04:00 -1°C° 0 mm 1 mps 720 mmHg 80%
    05:00 -1°C° 0 mm 1 mps 720 mmHg 81%
    06:00 -1°C° 0 mm 1 mps 720 mmHg 82%
    07:00 -1°C° 0 mm 1 mps 720 mmHg 82%
    08:00 -1°C° 0 mm 0 mps 721 mmHg 80%
    09:00 0°C° 0 mm 0 mps 721 mmHg 79%
    10:00 +1°C° 0 mm 0 mps 721 mmHg 77%
    11:00 +2°C° 0 mm 0 mps 721 mmHg 76%
    12:00 +3°C° 0 mm 0 mps 721 mmHg 75%
    13:00 +4°C° 0 mm 0 mps 720 mmHg 74%
    14:00 +4°C° 0 mm 1 mps 720 mmHg 78%
    15:00 +3°C° 0 mm 1 mps 720 mmHg 82%
    16:00 +2°C° 0 mm 1 mps 720 mmHg 86%
    17:00 +2°C° 0 mm 1 mps 720 mmHg 88%
    18:00 +2°C° 0 mm 1 mps 720 mmHg 89%
    19:00 +1°C° 0 mm 1 mps 720 mmHg 91%
    20:00 +2°C° 0.1 mm 1 mps 720 mmHg 93%
    21:00 +2°C° 0.1 mm 1 mps 720 mmHg 95%
    22:00 +2°C° 0.1 mm 1 mps 720 mmHg 96%
    23:00 +1°C° 0 mm 2 mps 720 mmHg 95%

    27 January, Monday

    Time Temperature Precipitation Wind Pressure Humidity
    00:00 +1°C° 0 mm 2 mps 720 mmHg 94%
    01:00 +1°C° 0 mm 2 mps 720 mmHg 93%
    02:00 +1°C° 0 mm 2 mps 719 mmHg 94%
    03:00 +1°C° 0 mm 2 mps 719 mmHg 94%
    04:00 +1°C° 0 mm 2 mps 719 mmHg 94%
    05:00 +1°C° 0.1 mm 2 mps 719 mmHg 94%
    06:00 +1°C° 0.1 mm 2 mps 720 mmHg 95%
    07:00 +1°C° 0.1 mm 2 mps 720 mmHg 96%
    08:00 +2°C° 0.2 mm 2 mps 720 mmHg 95%
    09:00 +2°C° 0.2 mm 2 mps 721 mmHg 95%
    10:00 +2°C° 0.2 mm 2 mps 721 mmHg 94%
    11:00 +3°C° 0 mm 2 mps 721 mmHg 94%
    12:00 +3°C° 0 mm 2 mps 721 mmHg 93%
    13:00 +2°C° 0 mm 3 mps 721 mmHg 92%
    14:00 +3°C° 0 mm 2 mps 721 mmHg 92%
    15:00 +3°C° 0 mm 2 mps 721 mmHg 92%
    16:00 +3°C° 0 mm 2 mps 721 mmHg 93%
    17:00 +3°C° 0 mm 2 mps 722 mmHg 93%
    18:00 +3°C° 0 mm 2 mps 722 mmHg 93%
    19:00 +2°C° 0 mm 2 mps 722 mmHg 93%
    20:00 +2°C° 0 mm 2 mps 722 mmHg 93%
    21:00 +2°C° 0 mm 2 mps 722 mmHg 92%
    22:00 +2°C° 0 mm 2 mps 722 mmHg 92%
    23:00 +2°C° 0 mm 2 mps 722 mmHg 91%
    Show more